Sheboygan Falls, WI

12:23 AM CDT on September 30, 2016 (GMT -0500)
Sheboygan County Memorial

Weather History for KSBM - March, 2013

Change the Weather History Date:

Saturday, March 2, 2013

  Actual Average Record
Temperature  
Mean Temperature 17 °F -  
Max Temperature 24 °F 37 °F 60 °F (1964)
Min Temperature 7 °F 23 °F -5 °F (1950)
Degree Days  
Heating Degree Days 48    
Moisture  
Dew Point 10 °F    
Average Humidity 74    
Maximum Humidity 87    
Minimum Humidity 65    
Precipitation  
Precipitation 0.00 in - - ()
Sea Level Pressure  
Sea Level Pressure 30.22 in    
Wind  
Wind Speed 12 mph (NNW)    
Max Wind Speed 17 mph    
Max Gust Speed -    
Visibility 10 miles    
Events      
Averages and records for this station are not official NWS values.
T = Trace of Precipitation, MM = Missing Value Source: NWS Daily Summary

Daily Weather History Graph

Daily Weather History Graph

Search for Another Location

Airport or City:

Trip Planner

Search our weather history database for the weather conditions in past years. The results will help you decide how hot, cold, wet, or windy it might be!

Date:

Astronomy

Mar. 02, 2013 Rise Set
Actual Time 6:25 AM CST 5:41 PM CST
Civil Twilight 5:57 AM CST 6:10 PM CST
Nautical Twilight 5:23 AM CST 6:43 PM CST
Astronomical Twilight 4:50 AM CST 7:17 PM CST
Moon 11:33 PM CST (3/2) 8:42 AM CST (3/2)
Length of Visible Light 12h 13m
Length of Day
11h 15m
Waning Gibbous, 74% of the Moon is Illuminated
Mar 2
Waning Gibbous
Mar 4
Last Quarter
Mar 11
New
Mar 19
First Quarter
Mar 27
Full

Hourly Weather History & Observations

Time (CST) Temp. Windchill Dew Point Humidity Pressure Visibility Wind Dir Wind Speed Gust Speed Precip Events Conditions
12:53 AM 18.0 °F 2.6 °F 10.9 °F 74% 30.25 in 10.0 mi NNW 17.3 mph - N/A   Overcast
1:53 AM 18.0 °F 4.2 °F 10.9 °F 74% 30.24 in 10.0 mi NNW 13.8 mph - N/A   Overcast
2:44 AM 17.6 °F 3.7 °F 10.4 °F 73% 30.19 in 10.0 mi NNW 13.8 mph - N/A   Overcast
2:53 AM 17.1 °F 3.0 °F 10.0 °F 74% 30.23 in 10.0 mi NNW 13.8 mph - N/A   Overcast
3:11 AM 17.6 °F 4.3 °F 10.4 °F 73% 30.19 in 10.0 mi NNW 12.7 mph - N/A   Overcast
3:53 AM 16.0 °F 1.1 °F 9.0 °F 74% 30.23 in 10.0 mi NNW 15.0 mph - N/A   Overcast
5:53 AM 15.1 °F 2.5 °F 9.0 °F 77% 30.24 in 10.0 mi NNW 10.4 mph - N/A   Overcast
6:53 AM 15.1 °F 1.1 °F 9.0 °F 77% 30.25 in 10.0 mi NNW 12.7 mph - N/A   Overcast
7:53 AM 14.0 °F -0.2 °F 8.1 °F 77% 30.25 in 10.0 mi NNW 12.7 mph - N/A   Overcast
8:53 AM 16.0 °F 2.3 °F 10.0 °F 77% 30.26 in 10.0 mi North 12.7 mph - N/A   Overcast
9:53 AM 18.0 °F 4.8 °F 12.0 °F 78% 30.26 in 10.0 mi North 12.7 mph - N/A   Overcast
10:53 AM 19.9 °F 9.3 °F 12.9 °F 74% 30.25 in 10.0 mi North 9.2 mph - N/A   Mostly Cloudy
11:53 AM 19.9 °F 7.9 °F 12.9 °F 74% 30.25 in 10.0 mi North 11.5 mph - N/A   Clear
12:53 PM 21.9 °F 13.4 °F 14.0 °F 72% 30.23 in 10.0 mi NNW 6.9 mph - N/A   Scattered Clouds
1:19 PM 23.0 °F 13.9 °F 14.0 °F 68% 30.18 in 10.0 mi North 8.1 mph - N/A   Mostly Cloudy
1:53 PM 23.0 °F 12.4 °F 15.1 °F 72% 30.21 in 10.0 mi NNW 10.4 mph - N/A   Mostly Cloudy
2:53 PM 24.1 °F 15.2 °F 15.1 °F 69% 30.21 in 10.0 mi NNW 8.1 mph - N/A   Scattered Clouds
3:53 PM 24.1 °F 14.4 °F 14.0 °F 65% 30.21 in 10.0 mi North 9.2 mph - N/A   Clear
4:53 PM 21.9 °F 13.4 °F 12.0 °F 66% 30.20 in 10.0 mi NNW 6.9 mph - N/A   Clear
5:53 PM 19.9 °F 13.4 °F 10.9 °F 68% 30.21 in 10.0 mi NW 4.6 mph - N/A   Clear
6:53 PM 17.1 °F 10.0 °F 9.0 °F 71% 30.22 in 10.0 mi WNW 4.6 mph - N/A   Clear
7:53 PM 14.0 °F 6.5 °F 8.1 °F 77% 30.21 in 10.0 mi WNW 4.6 mph - N/A   Clear
8:53 PM 12.0 °F 5.9 °F 6.1 °F 77% 30.21 in 10.0 mi WNW 3.5 mph - N/A   Clear
9:53 PM 12.0 °F 0.5 °F 8.1 °F 84% 30.20 in 10.0 mi WNW 8.1 mph - N/A   Clear
10:53 PM 10.9 °F 0.2 °F 6.1 °F 81% 30.20 in 10.0 mi NW 6.9 mph - N/A   Clear
11:53 PM 7.0 °F 0.1 °F 3.9 °F 87% 30.19 in 10.0 mi NW 3.5 mph - N/A   Clear